Weather History for Hereford, TX

Change the Weather History Date:

Tuesday, November 20, 2012

  Actual Average (KAMA) Record (KAMA)
Temperature  
Mean Temperature 50 °F 44 °F  
Max Temperature 71 °F 58 °F 85 °F (1996)
Min Temperature 28 °F 30 °F 4 °F (1906)
Degree Days  
Heating Degree Days 16 21  
Month to date heating degree days 331  
Since 1 July heating degree days 611  
Cooling Degree Days 0 0  
Month to date cooling degree days 0  
Year to date cooling degree days 1398  
Moisture  
Dew Point 24 °F    
Average Humidity 45    
Maximum Humidity 81    
Minimum Humidity 14    
Precipitation  
Precipitation 0.00 in 0.02 in 1.08 in (1899)
Month to date precipitation 0.59  
Year to date precipitation 19.44  
Snow  
Snow 0.00 in 0.10 in 0.90 in (1906)
Month to date snowfall 1.4  
Since 1 July snowfall 1.6  
Since 1 September snowfall 1.6  
Snow Depth -    
Sea Level Pressure  
Sea Level Pressure 30.25 in    
Wind  
Wind Speed 9 mph (SSW)    
Max Wind Speed 17 mph    
Max Gust Speed 25 mph    
Visibility 10 miles    
Events      
T = Trace of Precipitation, MM = Missing Value Source: NWS Daily Summary

Daily Weather History Graph

Daily Weather History Graph

Search for Another Location

Airport:

Trip Planner

Search our weather history database for the weather conditions in past years. The results will help you decide how hot, cold, wet, or windy it might be!

Date:

Astronomy

Nov. 20, 2012 Rise Set
Actual Time 7:28 AM CST 5:41 PM CST
Civil Twilight 7:01 AM CST 6:08 PM CST
Nautical Twilight 6:30 AM CST 6:38 PM CST
Astronomical Twilight 6:00 AM CST 7:09 PM CST
Moon 1:12 PM CST (11/20) 12:04 AM CST (11/20)
Length of Visible Light 11h 06m
Length of Day
10h 12m
First Quarter, 51% of the Moon is Illuminated
Nov 20
First Quarter
Nov 28
Full
Dec 6
Last Quarter
Dec 13
New
Dec 19
First Quarter

Hourly Weather History & Observations

Time (CST) Temp. Windchill Dew Point Humidity Pressure Visibility Wind Dir Wind Speed Gust Speed Precip Events Conditions
12:15 AM 32.0 °F 20.8 °F 26.6 °F 80% 30.23 in 10.0 mi WNW 17.3 mph 25.3 mph N/A   Clear
12:35 AM 32.0 °F 20.8 °F 26.6 °F 80% 30.23 in 10.0 mi NW 17.3 mph - N/A   Clear
12:55 AM 32.0 °F - 26.6 °F 80% 30.24 in 10.0 mi North - - N/A   Clear
1:15 AM 32.0 °F - 26.6 °F 80% 30.23 in 10.0 mi North - - N/A   Clear
1:35 AM 32.0 °F 26.4 °F 26.6 °F 80% 30.24 in 10.0 mi West 5.8 mph - N/A   Clear
1:55 AM 32.0 °F 25.6 °F 26.6 °F 80% 30.24 in 10.0 mi West 6.9 mph - N/A   Clear
2:15 AM 32.0 °F 25.6 °F 24.8 °F 75% 30.23 in 10.0 mi West 6.9 mph - N/A   Clear
2:35 AM 32.0 °F 27.5 °F 24.8 °F 75% 30.24 in 10.0 mi WSW 4.6 mph - N/A   Clear
6:15 AM 30.2 °F 24.3 °F 24.8 °F 80% 30.26 in 10.0 mi WNW 5.8 mph - N/A   Clear
6:35 AM 30.2 °F 19.8 °F 24.8 °F 80% 30.26 in 10.0 mi NW 13.8 mph 24.2 mph N/A   Clear
6:55 AM 30.2 °F 25.4 °F 23.0 °F 75% 30.27 in 10.0 mi WNW 4.6 mph - N/A   Clear
7:15 AM 28.4 °F 24.6 °F 23.0 °F 80% 30.27 in 10.0 mi WNW 3.5 mph - N/A   Clear
7:35 AM 28.4 °F - 23.0 °F 80% 30.28 in 10.0 mi Calm Calm - N/A   Clear
7:55 AM 28.4 °F - 23.0 °F 80% 30.29 in 10.0 mi North - - N/A   Clear
8:15 AM 32.0 °F - 26.6 °F 80% 30.29 in 10.0 mi North - - N/A   Clear
8:35 AM 33.8 °F - 28.4 °F 81% 30.29 in 10.0 mi Calm Calm - N/A   Clear
8:55 AM 37.4 °F - 28.4 °F 70% 30.30 in 10.0 mi Calm Calm - N/A   Clear
9:15 AM 41.0 °F - 30.2 °F 65% 30.30 in 10.0 mi Calm Calm - N/A   Clear
9:35 AM 44.6 °F - 30.2 °F 57% 30.31 in 10.0 mi Calm Calm - N/A   Clear
9:55 AM 48.2 °F - 30.2 °F 50% 30.31 in 10.0 mi Calm Calm - N/A   Clear
10:15 AM 51.8 °F - 32.0 °F 47% 30.31 in 10.0 mi Calm Calm - N/A   Clear
10:35 AM 53.6 °F - 30.2 °F 41% 30.31 in 10.0 mi Calm Calm - N/A   Clear
10:55 AM 59.0 °F - 30.2 °F 34% 30.31 in 10.0 mi SW 8.1 mph - N/A   Clear
11:15 AM 60.8 °F - 28.4 °F 29% 30.31 in 10.0 mi WSW 8.1 mph 17.3 mph N/A   Clear
11:35 AM 64.4 °F - 28.4 °F 26% 30.29 in 10.0 mi WSW 4.6 mph - N/A   Clear
11:55 AM 66.2 °F - 26.6 °F 23% 30.28 in 10.0 mi WSW 3.5 mph - N/A   Clear
12:15 PM 69.8 °F - 21.2 °F 16% 30.28 in 10.0 mi South 10.4 mph 17.3 mph N/A   Clear
12:35 PM 69.8 °F - 21.2 °F 16% 30.26 in 10.0 mi SSW 6.9 mph - N/A   Clear
12:55 PM 69.8 °F - 21.2 °F 16% 30.26 in 10.0 mi South 11.5 mph - N/A   Clear
1:15 PM 69.8 °F - 19.4 °F 15% 30.24 in 10.0 mi SSW 10.4 mph - N/A   Clear
1:35 PM 69.8 °F - 19.4 °F 15% 30.24 in 10.0 mi SSW 9.2 mph 17.3 mph N/A   Clear
1:55 PM 71.6 °F - 19.4 °F 14% 30.23 in 10.0 mi SSW 11.5 mph 21.9 mph N/A   Clear
2:15 PM 71.6 °F - 19.4 °F 14% 30.23 in 10.0 mi SSE 10.4 mph 16.1 mph N/A   Clear
2:35 PM 71.6 °F - 19.4 °F 14% 30.22 in 10.0 mi South 12.7 mph 19.6 mph N/A   Clear
2:55 PM 71.6 °F - 19.4 °F 14% 30.21 in 10.0 mi South 10.4 mph 16.1 mph N/A   Clear
3:15 PM 71.6 °F - 19.4 °F 14% 30.21 in 10.0 mi South 11.5 mph - N/A   Clear
3:35 PM 71.6 °F - 19.4 °F 14% 30.21 in 10.0 mi SSW 12.7 mph 19.6 mph N/A   Clear
3:55 PM 69.8 °F - 17.6 °F 14% 30.21 in 10.0 mi South 11.5 mph 20.7 mph N/A   Clear
4:15 PM 69.8 °F - 17.6 °F 14% 30.21 in 10.0 mi South 12.7 mph 17.3 mph N/A   Clear
4:35 PM 69.8 °F - 17.6 °F 14% 30.22 in 10.0 mi South 11.5 mph - N/A   Clear
4:55 PM 68.0 °F - 19.4 °F 16% 30.22 in 10.0 mi South 11.5 mph 17.3 mph N/A   Clear
5:15 PM 64.4 °F - 21.2 °F 19% 30.22 in 10.0 mi South 9.2 mph - N/A   Clear
5:35 PM 60.8 °F - 21.2 °F 22% 30.22 in 10.0 mi South 10.4 mph - N/A   Clear
5:55 PM 60.8 °F - 21.2 °F 22% 30.22 in 10.0 mi South 10.4 mph - N/A   Clear
6:15 PM 55.4 °F - 21.2 °F 26% 30.22 in 10.0 mi South 10.4 mph - N/A   Clear
6:35 PM 55.4 °F - 21.2 °F 26% 30.23 in 10.0 mi South 8.1 mph - N/A   Clear
6:55 PM 53.6 °F - 23.0 °F 30% 30.23 in 10.0 mi North - - N/A   Clear
7:15 PM 51.8 °F - 24.8 °F 35% 30.24 in 10.0 mi SSE 10.4 mph - N/A   Clear
7:35 PM 51.8 °F - 23.0 °F 33% 30.24 in 10.0 mi South 10.4 mph - N/A   Clear
7:55 PM 50.0 °F - 23.0 °F 35% 30.24 in 10.0 mi North - - N/A   Clear
8:15 PM 48.2 °F - 21.2 °F 34% 30.25 in 10.0 mi North - - N/A   Clear
8:35 PM 46.4 °F - 21.2 °F 37% 30.26 in 10.0 mi North - - N/A   Clear
8:55 PM 44.6 °F - 21.2 °F 39% 30.26 in 10.0 mi North - - N/A   Clear
9:15 PM 44.6 °F - 23.0 °F 43% 30.26 in 10.0 mi North - - N/A   Clear
9:35 PM 44.6 °F - 23.0 °F 43% 30.26 in 10.0 mi North - - N/A   Clear
9:55 PM 44.6 °F - 23.0 °F 43% 30.26 in 10.0 mi North - - N/A   Clear
10:15 PM 42.8 °F - 24.8 °F 49% 30.26 in 10.0 mi North - - N/A   Clear
10:35 PM 42.8 °F - 26.6 °F 53% 30.26 in 10.0 mi North - - N/A   Clear
10:55 PM 41.0 °F 35.2 °F 26.6 °F 57% 30.26 in 10.0 mi SSW 9.2 mph - N/A   Clear
11:15 PM 39.2 °F 33.6 °F 26.6 °F 61% 30.25 in 10.0 mi SSW 8.1 mph - N/A   Clear
11:35 PM 37.4 °F 31.4 °F 26.6 °F 65% 30.26 in 10.0 mi SSW 8.1 mph - N/A   Clear
11:55 PM 37.4 °F - 28.4 °F 70% 30.25 in 10.0 mi North - - N/A   Clear